FW7499 Weather Reports


time (UTC)temp
F
wind
direction
speed
knots
gust
knots
rain 1hr
in
rain 24hr
in
rain mn
in
humidity
%
barometer
mb
20260902024505 83 119 0.0 1.7 0.00 0.00 0.00 65 1011.7
20260902024007 83 119 0.0 1.7 0.00 0.00 0.00 64 1011.7
20260902023507 83 127 0.0 1.7 0.00 0.00 0.00 63 1011.6
20260902023024 83 184 0.0 1.7 0.00 0.00 0.00 64 1011.6
20260902022505 83 179 0.0 1.7 0.00 0.00 0.00 66 1011.5
20260902022003 83 179 0.0 1.7 0.00 0.00 0.00 66 1011.4
20260902021510 83 193 0.0 1.7 0.00 0.00 0.00 65 1011.3
20260902021003 83 193 0.0 1.7 0.00 0.00 0.00 65 1011.2
20260902020504 84 193 0.0 1.7 0.00 0.00 0.00 65 1011.1
20260902020011 84 193 0.0 1.7 0.00 0.00 0.00 64 1011.0
20260902015507 84 159 0.0 0.9 0.00 0.00 0.00 63 1010.9
20260902015004 84 159 0.0 1.7 0.00 0.00 0.00 64 1010.9
20260902014511 84 159 0.0 1.7 0.00 0.00 0.00 64 1010.8
20260902014003 84 159 0.0 1.7 0.00 0.00 0.00 63 1010.7
20260902013511 84 56 0.0 1.7 0.00 0.00 0.00 64 1010.7
20260902013007 84 71 0.0 1.7 0.00 0.00 0.00 65 1010.6
20260902012503 84 83 0.0 1.7 0.00 0.00 0.00 65 1010.6
20260902012016 85 83 0.0 1.7 0.00 0.00 0.00 64 1010.5
20260902011504 85 85 0.0 0.9 0.00 0.00 0.00 64 1010.6
20260902011007 85 85 0.0 1.7 0.00 0.00 0.00 64 1010.6
20260902010502 85 85 0.0 1.7 0.00 0.00 0.00 63 1010.6
20260902010009 86 85 0.0 1.7 0.00 0.00 0.00 62 1010.5
20260902005508 86 85 0.0 1.7 0.00 0.00 0.00 62 1010.5
20260902005006 86 85 0.0 0.9 0.00 0.00 0.00 60 1010.5
20260902004510 87 85 0.0 1.7 0.00 0.00 0.00 60 1010.5
20260902004003 87 85 0.0 1.7 0.00 0.00 0.00 59 1010.5
20260902003508 88 85 0.0 1.7 0.00 0.00 0.00 58 1010.4
20260902003017 89 85 0.0 1.7 0.00 0.00 0.00 55 1010.4
20260902002510 89 63 0.0 1.7 0.00 0.00 0.00 55 1010.4
20260902002004 90 182 0.0 1.7 0.00 0.00 0.00 54 1010.4
20260902001516 91 181 0.0 1.7 0.00 0.00 0.00 52 1010.4
20260902001009 91 191 0.0 2.6 0.00 0.00 0.00 53 1010.5
20260902000504 91 115 0.0 2.6 0.00 0.00 0.00 51 1010.5
20260902000016 91 140 0.0 2.6 0.00 0.00 0.00 52 1010.5
20260901235511 91 148 0.0 3.5 0.00 0.00 0.00 52 1010.6
20260901235003 92 205 0.0 5.2 0.00 0.00 0.00 52 1010.6
20260901234507 92 236 0.9 5.2 0.00 0.00 0.00 52 1010.6
20260901234007 92 171 0.9 3.5 0.00 0.00 0.00 52 1010.7
20260901233508 92 230 0.9 7.8 0.00 0.00 0.00 51 1010.7
20260901233014 93 253 1.7 7.8 0.00 0.00 0.00 49 1010.8
20260901232503 93 276 0.0 7.0 0.00 0.00 0.00 50 1010.8
20260901232015 93 277 0.9 4.3 0.00 0.00 0.00 50 1010.8
20260901231510 94 326 1.7 4.3 0.00 0.00 0.00 49 1010.7
20260901231006 94 260 0.9 4.3 0.00 0.00 0.00 50 1010.8
20260901230513 94 236 2.6 6.1 0.00 0.00 0.00 49 1010.9
20260901230012 94 185 1.7 6.1 0.00 0.00 0.00 50 1010.8
20260901225513 94 108 0.0 9.6 0.00 0.00 0.00 48 1010.9
20260901225009 94 198 1.7 9.6 0.00 0.00 0.00 50 1011.0
20260901224521 94 314 1.7 9.6 0.00 0.00 0.00 49 1011.0
20260901224005 94 235 1.7 6.1 0.00 0.00 0.00 50 1011.0
20260901223507 95 297 2.6 6.1 0.00 0.00 0.00 48 1011.0
20260901223009 95 218 1.7 7.8 0.00 0.00 0.00 49 1011.0
20260901222510 95 238 0.9 7.8 0.00 0.00 0.00 49 1011.0
20260901222009 95 160 2.6 7.8 0.00 0.00 0.00 49 1011.0
20260901221511 95 286 1.7 8.7 0.00 0.00 0.00 49 1011.1
20260901221012 94 206 1.7 8.7 0.00 0.00 0.00 49 1011.1
20260901220513 94 261 0.9 4.3 0.00 0.00 0.00 51 1011.2
20260901220009 94 213 1.7 7.0 0.00 0.00 0.00 50 1011.1
20260901215515 95 233 1.7 7.0 0.00 0.00 0.00 48 1011.3
20260901215014 95 202 0.9 5.2 0.00 0.00 0.00 50 1011.3
20260901214528 95 263 0.9 5.2 0.00 0.00 0.00 53 1011.3
20260901214011 95 308 1.7 6.1 0.00 0.00 0.00 50 1011.4
20260901213511 95 261 0.9 6.1 0.00 0.00 0.00 50 1011.4
20260901213029 95 346 0.9 6.1 0.00 0.00 0.00 51 1011.5
20260901212508 94 17 2.6 9.6 0.00 0.00 0.00 51 1011.5
20260901212006 94 64 0.9 9.6 0.00 0.00 0.00 51 1011.5
20260901211523 94 184 0.9 7.8 0.00 0.00 0.00 51 1011.6
20260901211012 94 313 1.7 7.8 0.00 0.00 0.00 50 1011.6
20260901210511 94 198 0.9 5.2 0.00 0.00 0.00 53 1011.7
20260901210021 94 281 1.7 7.0 0.00 0.00 0.00 50 1011.7
20260901205514 94 235 2.6 7.0 0.00 0.00 0.00 50 1011.7
20260901205013 94 234 0.9 4.3 0.00 0.00 0.00 52 1011.8
20260901204517 94 243 0.9 7.0 0.00 0.00 0.00 50 1011.8
20260901204018 94 172 2.6 9.6 0.00 0.00 0.00 51 1011.9
20260901203511 94 223 2.6 9.6 0.00 0.00 0.00 52 1012.0
20260901203012 94 180 1.7 7.0 0.00 0.00 0.00 50 1012.1
20260901202513 94 146 2.6 7.0 0.00 0.00 0.00 51 1012.2
20260901202014 94 271 1.7 6.1 0.00 0.00 0.00 51 1012.2
20260901201528 93 163 1.7 6.1 0.00 0.00 0.00 51 1012.3
20260901201010 93 273 2.6 6.1 0.00 0.00 0.00 52 1012.3
20260901200510 94 328 1.7 6.1 0.00 0.00 0.00 52 1012.5
20260901200022 94 198 1.7 7.8 0.00 0.00 0.00 52 1012.6
20260901195510 93 223 2.6 7.8 0.00 0.00 0.00 54 1012.6
20260901195015 93 225 2.6 7.8 0.00 0.00 0.00 52 1012.6
20260901194528 93 261 1.7 7.8 0.00 0.00 0.00 52 1012.6
20260901194009 93 297 1.7 9.6 0.00 0.00 0.00 51 1012.6
20260901193510 93 218 1.7 9.6 0.00 0.00 0.00 50 1012.7
20260901193019 93 93 3.5 7.8 0.00 0.00 0.00 54 1012.7
20260901192519 93 112 2.6 7.0 0.00 0.00 0.00 50 1012.8
20260901192016 93 32 1.7 6.1 0.00 0.00 0.00 51 1012.8
20260901191517 92 156 1.7 6.1 0.00 0.00 0.00 51 1012.9
20260901191003 93 227 1.7 4.3 0.00 0.00 0.00 52 1013.0
20260901190506 93 170 0.9 3.5 0.00 0.00 0.00 49 1013.1
20260901190019 92 74 0.9 3.5 0.00 0.00 0.00 51 1013.1
20260901185503 93 321 0.9 3.5 0.00 0.00 0.00 52 1013.1
20260901185013 92 248 0.9 6.1 0.00 0.00 0.00 52 1013.1
20260901184511 91 211 0.9 6.1 0.00 0.00 0.00 50 1013.2
20260901184002 92 170 0.9 1.7 0.00 0.00 0.00 52 1013.2
20260901183504 90 287 0.9 4.3 0.00 0.00 0.00 56 1013.2
20260901183003 91 150 1.7 4.3 0.00 0.00 0.00 52 1013.2
20260901182503 92 291 0.9 5.2 0.00 0.00 0.00 51 1013.2
20260901182003 91 99 0.9 5.2 0.00 0.00 0.00 52 1013.2
20260901181503 91 254 0.9 3.5 0.00 0.00 0.00 55 1013.3
20260901181009 91 123 0.9 3.5 0.00 0.00 0.00 51 1013.3
20260901180507 91 59 1.7 3.5 0.00 0.00 0.00 54 1013.4
20260901180004 90 219 0.9 5.2 0.00 0.00 0.00 56 1013.4
20260901175509 90 88 0.9 5.2 0.00 0.00 0.00 55 1013.5
20260901175005 90 40 0.9 3.5 0.00 0.00 0.00 55 1013.6
20260901174503 90 182 0.0 1.7 0.00 0.00 0.00 53 1013.7
20260901174003 89 113 0.9 3.5 0.00 0.00 0.00 53 1013.7
20260901173506 89 59 0.9 3.5 0.00 0.00 0.00 53 1013.7
20260901173006 89 319 0.9 5.2 0.00 0.00 0.00 53 1013.7
20260901172502 89 280 1.7 5.2 0.00 0.00 0.00 54 1013.8
20260901172002 88 83 1.7 5.2 0.00 0.00 0.00 54 1013.8
20260901171503 88 162 0.9 5.2 0.00 0.00 0.00 54 1013.9
20260901171004 88 274 0.0 3.5 0.00 0.00 0.00 56 1013.9
20260901170506 88 184 0.9 2.6 0.00 0.00 0.00 55 1013.9
20260901170008 88 71 0.9 3.5 0.00 0.00 0.00 56 1013.9
20260901165509 88 103 1.7 3.5 0.00 0.00 0.00 56 1013.9
20260901165004 88 297 0.9 3.5 0.00 0.00 0.00 56 1013.9
20260901164510 88 61 0.9 3.5 0.00 0.00 0.00 57 1013.9
20260901164006 88 56 0.9 3.5 0.00 0.00 0.00 56 1013.9
20260901163512 87 175 0.9 3.5 0.00 0.00 0.00 54 1013.9
20260901163007 87 266 1.7 3.5 0.00 0.00 0.00 55 1014.0
20260901162503 87 136 0.9 2.6 0.00 0.00 0.00 57 1014.0
20260901162011 87 163 0.9 2.6 0.00 0.00 0.00 56 1014.0
20260901161503 87 83 0.9 2.6 0.00 0.00 0.00 56 1013.9
20260901161004 86 306 1.7 3.5 0.00 0.00 0.00 54 1014.0
20260901160504 86 57 0.0 3.5 0.00 0.00 0.00 57 1014.0
20260901160012 85 251 0.9 3.5 0.00 0.00 0.00 57 1014.0
20260901155503 85 171 0.9 3.5 0.00 0.00 0.00 58 1014.0
20260901155006 86 270 0.9 4.3 0.00 0.00 0.00 55 1013.9
20260901154505 85 268 0.9 4.3 0.00 0.00 0.00 56 1013.9
20260901154004 85 133 0.9 4.3 0.00 0.00 0.00 54 1013.8
20260901153511 85 146 0.0 1.7 0.00 0.00 0.00 56 1013.8
20260901153017 85 289 0.0 3.5 0.00 0.00 0.00 58 1013.8
20260901152511 85 275 0.9 3.5 0.00 0.00 0.00 56 1013.8
20260901152003 84 261 0.0 3.5 0.00 0.00 0.00 58 1013.8
20260901151519 84 223 0.9 3.5 0.00 0.00 0.00 58 1013.8
20260901151009 84 292 1.7 3.5 0.00 0.00 0.00 57 1013.8
20260901150502 83 55 0.0 1.7 0.00 0.00 0.00 60 1013.8
20260901150004 83 186 0.0 2.6 0.00 0.00 0.00 59 1013.9
20260901145503 83 240 0.9 3.5 0.00 0.00 0.00 60 1013.9
20260901145003 82 304 0.9 4.3 0.00 0.00 0.00 62 1013.9
20260901144514 82 155 1.7 4.3 0.00 0.00 0.00 60 1013.9
20260901144007 82 211 0.9 1.7 0.00 0.00 0.00 64 1014.0
20260901143509 82 240 0.0 1.7 0.00 0.00 0.00 61 1014.0
20260901143014 81 219 0.9 2.6 0.00 0.00 0.00 62 1014.1
20260901142507 81 169 0.0 2.6 0.00 0.00 0.00 67 1014.1
20260901142011 81 254 0.0 1.7 0.00 0.00 0.00 66 1014.1
20260901141523 80 286 0.9 2.6 0.00 0.00 0.00 66 1014.2
20260901141002 80 282 0.0 2.6 0.00 0.00 0.00 67 1014.2
20260901140509 80 182 0.0 1.7 0.00 0.00 0.00 70 1014.2
20260901140020 80 182 0.0 1.7 0.00 0.00 0.00 70 1014.1
20260901135516 79 220 0.0 1.7 0.00 0.00 0.00 73 1014.1
20260901135004 79 163 0.0 1.7 0.00 0.00 0.00 76 1014.1
20260901134522 78 136 0.0 1.7 0.00 0.00 0.00 74 1014.2
20260901134007 78 159 0.0 1.7 0.00 0.00 0.00 76 1014.1
20260901133503 77 78 0.0 1.7 0.00 0.00 0.00 78 1014.1
20260901133019 77 78 0.0 1.7 0.00 0.00 0.00 80 1014.1
20260901132511 76 78 0.0 1.7 0.00 0.00 0.00 81 1014.0
20260901132006 76 78 0.0 0.9 0.00 0.00 0.00 80 1014.1
20260901131506 76 78 0.0 0.9 0.00 0.00 0.00 81 1014.1
20260901131010 75 78 0.0 1.7 0.00 0.00 0.00 81 1014.2
20260901130515 76 78 0.0 1.7 0.00 0.00 0.00 81 1014.1
20260901130025 75 144 0.0 1.7 0.00 0.00 0.00 82 1014.1
20260901125509 75 139 0.0 1.7 0.00 0.00 0.00 83 1014.0
20260901125013 75 153 0.0 2.6 0.00 0.00 0.00 84 1014.0
20260901124519 74 169 0.0 2.6 0.00 0.00 0.00 82 1014.0
20260901124007 74 155 0.0 1.7 0.00 0.00 0.00 84 1013.9
20260901123507 74 187 0.0 1.7 0.00 0.00 0.00 84 1013.8
20260901123017 74 187 0.0 1.7 0.00 0.00 0.00 84 1013.8
20260901122508 73 187 0.0 1.7 0.00 0.00 0.00 84 1013.6
20260901122009 73 187 0.0 1.7 0.00 0.00 0.00 85 1013.6
20260901121514 73 187 0.0 1.7 0.00 0.00 0.00 85 1013.6
20260901121012 73 187 0.0 1.7 0.00 0.00 0.00 85 1013.4
20260901120509 73 187 0.0 0.9 0.00 0.00 0.00 85 1013.4
20260901120011 73 187 0.0 0.0 0.00 0.00 0.00 85 1013.4
20260901115513 73 187 0.0 0.0 0.00 0.00 0.00 85 1013.4
20260901115011 73 187 0.0 1.7 0.00 0.00 0.00 85 1013.4
20260901114517 73 187 0.0 1.7 0.00 0.00 0.00 85 1013.4
20260901114016 73 187 0.0 1.7 0.00 0.00 0.00 86 1013.4
20260901113512 73 187 0.0 1.7 0.00 0.00 0.00 86 1013.5
20260901113014 73 187 0.0 0.9 0.00 0.00 0.00 84 1013.4
20260901112507 73 187 0.0 0.0 0.00 0.00 0.00 86 1013.5
20260901112011 73 187 0.0 1.7 0.00 0.00 0.00 87 1013.5
20260901111514 73 187 0.0 1.7 0.00 0.00 0.00 87 1013.5
20260901111013 73 187 0.0 1.7 0.00 0.00 0.00 87 1013.6
20260901110509 74 187 0.0 1.7 0.00 0.00 0.00 86 1013.7
20260901110031 74 187 0.0 1.7 0.00 0.00 0.00 87 1013.6
20260901105512 74 187 0.0 1.7 0.00 0.00 0.00 86 1013.6
20260901105017 74 187 0.0 0.0 0.00 0.00 0.00 86 1013.5
20260901104531 74 187 0.0 0.9 0.00 0.00 0.00 86 1013.5
20260901104013 74 187 0.0 0.9 0.00 0.00 0.00 86 1013.6
20260901103510 74 187 0.0 0.9 0.00 0.00 0.00 86 1013.6
20260901103027 74 187 0.0 0.0 0.00 0.00 0.00 86 1013.6
20260901102515 75 187 0.0 0.0 0.00 0.00 0.00 86 1013.6
20260901102015 75 187 0.0 0.0 0.00 0.00 0.00 86 1013.7
20260901101525 75 187 0.0 1.7 0.00 0.00 0.00 86 1013.7
20260901101008 75 187 0.0 1.7 0.00 0.00 0.00 86 1013.7
20260901100503 75 187 0.0 1.7 0.00 0.00 0.00 86 1013.8
20260901100005 75 187 0.0 1.7 0.00 0.00 0.00 86 1013.8
20260901095505 75 187 0.0 0.0 0.00 0.00 0.00 86 1013.8
20260901095005 75 187 0.0 0.0 0.00 0.00 0.00 86 1013.9
20260901094507 75 187 0.0 0.0 0.00 0.00 0.00 86 1013.8
20260901094004 75 187 0.0 0.0 0.00 0.00 0.00 86 1013.8
20260901093503 76 187 0.0 1.7 0.00 0.00 0.00 85 1013.8
20260901093006 76 187 0.0 1.7 0.00 0.00 0.00 85 1013.8
20260901092504 76 187 0.0 2.6 0.00 0.00 0.00 85 1013.9
20260901092004 76 186 0.0 2.6 0.00 0.00 0.00 85 1013.8
20260901091508 76 236 0.0 1.7 0.00 0.00 0.00 85 1013.8
20260901091006 75 186 0.0 1.7 0.00 0.00 0.00 86 1013.8
20260901090506 75 186 0.0 1.7 0.00 0.00 0.00 87 1013.9
20260901090011 75 186 0.0 1.7 0.00 0.00 0.00 88 1013.9
20260901085505 75 186 0.0 1.7 0.00 0.00 0.00 88 1013.9
20260901085012 75 186 0.0 1.7 0.00 0.00 0.00 88 1013.8
20260901084508 75 186 0.0 1.7 0.00 0.00 0.00 88 1013.8
20260901084007 75 186 0.0 1.7 0.00 0.00 0.00 87 1013.8
20260901083507 75 186 0.0 1.7 0.00 0.00 0.00 87 1013.7
20260901083009 75 186 0.0 0.0 0.00 0.00 0.00 87 1013.7
20260901082506 75 186 0.0 0.0 0.00 0.00 0.00 87 1013.7
20260901082004 75 186 0.0 0.0 0.00 0.00 0.00 88 1013.8
20260901081511 75 186 0.0 1.7 0.00 0.00 0.00 88 1013.8
20260901081006 75 186 0.0 1.7 0.00 0.00 0.00 88 1013.8
20260901080507 75 186 0.0 1.7 0.00 0.00 0.00 88 1013.8
20260901080008 75 186 0.0 1.7 0.00 0.00 0.00 88 1013.9
20260901075509 75 197 0.0 1.7 0.00 0.00 0.00 89 1014.0
20260901075007 75 196 0.0 1.7 0.00 0.00 0.00 89 1014.0
20260901074512 74 197 0.0 0.0 0.00 0.00 0.00 89 1014.0
20260901074006 75 197 0.0 0.0 0.00 0.00 0.00 88 1013.9
20260901073507 75 197 0.0 0.0 0.00 0.00 0.00 88 1013.9
20260901073013 75 196 0.0 0.0 0.00 0.00 0.00 87 1013.9
20260901072508 75 197 0.0 0.0 0.00 0.00 0.00 88 1013.9
20260901072010 75 197 0.0 0.0 0.00 0.00 0.00 87 1013.9
20260901071523 75 196 0.0 0.0 0.00 0.00 0.00 87 1014.0
20260901071007 75 196 0.0 0.0 0.00 0.00 0.00 88 1014.0
20260901070508 75 196 0.0 0.0 0.00 0.00 0.00 88 1014.0
20260901070010 75 197 0.0 0.0 0.00 0.00 0.00 88 1014.0
20260901065536 75 196 0.0 0.0 0.00 0.00 0.00 88 1014.0
20260901065009 75 196 0.0 0.0 0.00 0.00 0.00 88 1013.9
20260901064511 75 196 0.0 0.0 0.00 0.00 0.00 88 1014.1
20260901064008 75 196 0.0 0.0 0.00 0.00 0.00 88 1014.1
20260901063507 75 197 0.0 0.0 0.00 0.00 0.00 88 1014.1
20260901063025 75 196 0.0 0.0 0.00 0.00 0.00 88 1014.1
20260901062511 75 197 0.0 0.0 0.00 0.00 0.00 88 1014.2
20260901062008 75 197 0.0 0.0 0.00 0.00 0.00 88 1014.2
20260901061518 75 196 0.0 0.0 0.00 0.00 0.00 88 1014.1
20260901061010 75 197 0.0 0.0 0.00 0.00 0.00 88 1014.2
20260901060508 75 196 0.0 0.0 0.00 0.00 0.00 87 1014.2
20260901060014 76 196 0.0 0.0 0.00 0.00 0.00 87 1014.2
20260901055511 76 196 0.0 0.0 0.00 0.00 0.00 87 1014.2
20260901055009 76 196 0.0 0.0 0.00 0.00 0.00 87 1014.3
20260901054517 76 196 0.0 0.0 0.00 0.00 0.00 87 1014.3
20260901054012 76 196 0.0 0.9 0.00 0.00 0.00 86 1014.3
20260901053510 76 197 0.0 1.7 0.00 0.00 0.00 86 1014.4
20260901053014 77 197 0.0 1.7 0.00 0.00 0.00 86 1014.3
20260901052509 77 196 0.0 1.7 0.00 0.00 0.00 86 1014.4
20260901052009 77 197 0.0 0.9 0.00 0.00 0.00 86 1014.4
20260901051514 77 197 0.0 0.0 0.00 0.00 0.00 85 1014.2
20260901051011 77 196 0.0 0.0 0.00 0.00 0.00 85 1014.2
20260901050514 77 197 0.0 0.0 0.00 0.00 0.00 85 1014.2
20260901050019 77 197 0.0 0.0 0.00 0.00 0.00 85 1014.2
20260901045512 77 196 0.0 0.0 0.00 0.00 0.00 85 1014.3
20260901045010 77 197 0.0 0.0 0.00 0.00 0.00 85 1014.3
20260901044519 77 196 0.0 0.0 0.00 0.00 0.00 85 1014.3
20260901044010 77 196 0.0 0.0 0.00 0.00 0.00 84 1014.2
20260901043510 77 197 0.0 0.0 0.00 0.00 0.00 84 1014.3
20260901043023 77 197 0.0 0.0 0.00 0.00 0.00 84 1014.2
20260901042511 78 196 0.0 0.0 0.00 0.00 0.00 83 1014.2
20260901042011 78 197 0.0 0.0 0.00 0.00 0.00 83 1014.2
20260901041519 78 197 0.0 0.0 0.00 0.00 0.00 82 1014.2
20260901041010 78 196 0.0 0.0 0.00 0.00 0.00 82 1014.3
20260901040511 78 196 0.0 0.0 0.00 0.00 0.00 81 1014.3
20260901040018 79 196 0.0 0.0 0.00 0.00 0.00 81 1014.3
20260901035513 78 197 0.0 0.0 0.00 0.00 0.00 82 1014.3
20260901035011 78 196 0.0 0.0 0.00 0.00 0.00 82 1014.2
20260901034518 78 197 0.0 0.0 0.00 0.00 0.00 82 1014.1
20260901034011 79 196 0.0 0.0 0.00 0.00 0.00 81 1014.1
20260901033512 79 197 0.0 0.0 0.00 0.00 0.00 81 1013.9
20260901033023 79 196 0.0 0.0 0.00 0.00 0.00 81 1014.0
20260901032514 79 197 0.0 0.0 0.00 0.00 0.00 80 1014.0
20260901032013 79 196 0.0 0.0 0.00 0.00 0.00 80 1014.0
20260901031521 79 196 0.0 0.0 0.00 0.00 0.00 80 1014.0
20260901031013 79 197 0.0 0.0 0.00 0.00 0.00 79 1014.1
20260901030513 79 196 0.0 0.0 0.00 0.00 0.00 79 1014.0
20260901030020 79 196 0.0 0.0 0.00 0.00 0.00 79 1013.9
20260901025511 79 197 0.0 0.0 0.00 0.00 0.00 79 1013.9
20260901025010 79 197 0.0 0.0 0.00 0.00 0.00 79 1013.8